Norfolk, NE

11:47 PM CST on February 09, 2016 (GMT -0600)
Stefan Memorial

Weather History for KOFK - November, 2013

Change the Weather History Date:

Wednesday, November 6, 2013

  Actual Average Record
Temperature  
Mean Temperature 33 °F 42 °F  
Max Temperature 39 °F 53 °F 82 °F (1914)
Min Temperature 26 °F 30 °F -3 °F (1991)
Degree Days  
Heating Degree Days 32 23  
Month to date heating degree days 138 132  
Since 1 July heating degree days 660 717  
Cooling Degree Days 0 0  
Month to date cooling degree days 0 0  
Year to date cooling degree days 1005 915  
Moisture  
Dew Point 28 °F    
Average Humidity 81    
Maximum Humidity 92    
Minimum Humidity 70    
Precipitation  
Precipitation 0.00 in 0.05 in 1.28 in (1946)
Month to date precipitation 0.73 0.30  
Year to date precipitation 24.69 25.59  
Snow  
Snow 0.00 in 0.10 in - ()
Month to date snowfall 0.8 0.5  
Since 1 July snowfall 0.8 1.3  
Snow Depth T in    
Sea Level Pressure  
Sea Level Pressure 30.22 in    
Wind  
Wind Speed 7 mph (West)    
Max Wind Speed 20 mph    
Max Gust Speed 23 mph    
Visibility 10 miles    
Events      
T = Trace of Precipitation, MM = Missing Value Source: NWS Daily Summary

Daily Weather History Graph

Daily Weather History Graph

Search for Another Location

Airport or City:

Trip Planner

Search our weather history database for the weather conditions in past years. The results will help you decide how hot, cold, wet, or windy it might be!

Date:

Astronomy

Nov. 06, 2013 Rise Set
Actual Time 7:08 AM CST 5:17 PM CST
Civil Twilight 6:39 AM CST 5:46 PM CST
Nautical Twilight 6:06 AM CST 6:19 PM CST
Astronomical Twilight 5:33 AM CST 6:52 PM CST
Moon 10:26 AM CST (11/6) 8:21 PM CST (11/6)
Length of Visible Light 11h 07m
Length of Day
10h 08m
Waxing Crescent, 14% of the Moon is Illuminated
Nov 6
Waxing Crescent
Nov 9
First Quarter
Nov 17
Full
Nov 25
Last Quarter
Dec 2
New

Hourly Weather History & Observations

Time (CST) Temp. Windchill Dew Point Humidity Pressure Visibility Wind Dir Wind Speed Gust Speed Precip Events Conditions
12:56 AM 32.0 °F 23.0 °F 28.9 °F 88% 30.17 in 10.0 mi NNW 11.5 mph - N/A   Overcast
1:56 AM 32.0 °F 23.0 °F 28.9 °F 88% 30.17 in 10.0 mi NNW 11.5 mph - N/A   Overcast
2:56 AM 30.9 °F 20.7 °F 28.9 °F 92% 30.18 in 10.0 mi NNW 13.8 mph - N/A   Overcast
3:56 AM 30.9 °F 22.8 °F 28.9 °F 92% 30.19 in 10.0 mi NW 9.2 mph - N/A   Overcast
4:37 AM 30.2 °F 21.9 °F 28.4 °F 93% 30.15 in 10.0 mi NW 9.2 mph - N/A   Overcast
4:56 AM 30.9 °F 21.7 °F 28.0 °F 89% 30.21 in 10.0 mi NW 11.5 mph - N/A   Overcast
5:33 AM 30.2 °F 22.6 °F 28.4 °F 93% 30.16 in 10.0 mi NW 8.1 mph - N/A   Overcast
5:56 AM 30.9 °F 22.8 °F 28.9 °F 92% 30.21 in 10.0 mi WNW 9.2 mph - N/A   Overcast
6:03 AM 30.2 °F 22.6 °F 28.4 °F 93% 30.16 in 10.0 mi WNW 8.1 mph - N/A   Overcast
6:28 AM 30.2 °F 24.3 °F 28.4 °F 93% 30.16 in 10.0 mi West 5.8 mph - N/A   Overcast
6:35 AM 30.2 °F 23.4 °F 28.4 °F 93% 30.16 in 10.0 mi West 6.9 mph - N/A   Overcast
6:56 AM 30.9 °F 25.2 °F 28.0 °F 89% 30.22 in 10.0 mi West 5.8 mph - N/A   Overcast
7:31 AM 30.2 °F 22.6 °F 28.4 °F 93% 30.18 in 10.0 mi West 8.1 mph - N/A   Overcast
7:56 AM 30.9 °F 22.2 °F 28.0 °F 89% 30.25 in 10.0 mi West 10.4 mph - N/A   Overcast
8:56 AM 30.9 °F 23.5 °F 28.9 °F 92% 30.26 in 10.0 mi West 8.1 mph - N/A   Overcast
9:56 AM 32.0 °F 25.6 °F 28.0 °F 85% 30.27 in 10.0 mi West 6.9 mph - N/A   Overcast
10:56 AM 33.1 °F 28.7 °F 28.0 °F 82% 30.28 in 10.0 mi West 4.6 mph - N/A   Overcast
11:56 AM 35.1 °F 29.3 °F 28.9 °F 78% 30.26 in 10.0 mi WSW 6.9 mph - N/A   Partly Cloudy
12:56 PM 37.0 °F 31.0 °F 28.9 °F 73% 30.25 in 10.0 mi West 8.1 mph - N/A   Clear
1:12 PM 37.4 °F 31.4 °F 30.2 °F 75% 30.20 in 10.0 mi SW 8.1 mph - N/A   Mostly Cloudy
1:28 PM 37.4 °F 30.8 °F 28.4 °F 70% 30.21 in 10.0 mi WSW 9.2 mph - N/A   Scattered Clouds
1:36 PM 37.4 °F 30.8 °F 30.2 °F 75% 30.20 in 10.0 mi West 9.2 mph - N/A   Mostly Cloudy
1:56 PM 37.0 °F 31.6 °F 30.0 °F 76% 30.25 in 10.0 mi West 6.9 mph - N/A   Overcast
2:56 PM 39.0 °F 33.4 °F 30.9 °F 73% 30.23 in 10.0 mi West 8.1 mph - N/A   Overcast
3:13 PM 39.2 °F 33.6 °F 30.2 °F 70% 30.18 in 10.0 mi WSW 8.1 mph - N/A   Scattered Clouds
3:56 PM 37.0 °F 30.4 °F 30.9 °F 79% 30.24 in 10.0 mi West 9.2 mph - N/A   Mostly Cloudy
4:22 PM 37.4 °F 30.8 °F 30.2 °F 75% 30.19 in 10.0 mi WSW 9.2 mph - N/A   Scattered Clouds
4:56 PM 35.1 °F 29.3 °F 28.9 °F 78% 30.25 in 10.0 mi West 6.9 mph - N/A   Clear
5:56 PM 32.0 °F - 28.0 °F 85% 30.25 in 10.0 mi Calm Calm - N/A   Clear
6:56 PM 28.0 °F - 27.0 °F 96% 30.26 in 10.0 mi Calm Calm - N/A   Clear
7:56 PM 26.1 °F - 24.1 °F 92% 30.27 in 9.0 mi Calm Calm - N/A   Clear
8:56 PM 30.0 °F 26.5 °F 26.1 °F 85% 30.27 in 10.0 mi SW 3.5 mph - N/A   Clear
9:56 PM 28.0 °F 22.8 °F 25.0 °F 88% 30.29 in 10.0 mi WSW 4.6 mph - N/A   Clear
10:56 PM 28.9 °F 22.8 °F 26.1 °F 89% 30.28 in 10.0 mi WSW 5.8 mph - N/A   Clear
11:56 PM 30.0 °F 24.1 °F 26.1 °F 85% 30.29 in 10.0 mi West 5.8 mph - N/A   Clear